Location: Boiro
(42.6475°N, 8.8834°W)
Time: 02:11:43
(UTC+01:00)

Transit 2A Rocket - Pass Details

Date: 07 December 2021
Orbit: 584 x 917 km, 66.7° (Epoch: 23 January)

Event Time Altitude Azimuth Distance (km) Brightness Sun altitude
Rises 10:19:10 0° 263° (W) 3,404 8.0 11.7°
Reaches altitude 10° 10:22:27 10° 282° (WNW) 2,523 7.2 12.1°
Maximum altitude 10:26:21 18° 324° (NW) 2,066 6.7 12.6°
Drops below altitude 10° 10:30:22 10° 5° (N) 2,608 7.4 13.1°
Sets 10:33:51 0° 24° (NNE) 3,564 8.2 13.5°
